Wind_Speed
131 128 127 122 120 116 112 109 105 101 95 97 95 93 89 86 83 75 72 70 70 67 64 63 60 60 55
137 134 131 125 122 120 116 112 105 104 99 100 98 97 90 88 85 78 71 67 69 72 70 65 64 63 58
139 137 133 130 129 124 118 115 110 106 104 103 102 101 97 91 89 87 82 81 78 74 73 66 68 64 60
138 143 142 130 129 127 122 122 114 110 110 105 104 102 99 96 93 92 91 88 87 80 78 74 72 69 68
143 142 146 142 136 129 127 127 121 117 113 110 108 105 104 102 97 98 96 92 88 88 81 78 79 74 73
153 147 143 145 147 140 129 129 127 121 116 112 111 110 107 105 98 97 95 93 91 88 82 82 79 80 77
160 151 152 146 152 145 139 133 131 124 122 117 118 115 111 106 103 99 97 96 94 92 86 87 81 82 79
159 158 153 158 149 153 146 139 135 126 125 119 117 118 117 114 111 110 105 103 96 95 90 85 85 82 81
157 158 160 160 160 153 151 149 139 129 130 123 117 113 107 107 105 104 104 104 103 101 95 95 91 82 82
161 158 159 161 162 155 152 152 149 138 129 128 116 112 109 104 99 94 92 91 89 87 88 89 90 82 83
169 163 160 160 163 160 156 148 155 149 139 129 126 121 113 105 105 102 98 94 93 95 90 86 82 83 78
174 171 164 160 159 162 161 157 150 153 150 144 129 125 111 101 103 103 94 91 93 87 84 83 88 87 86
160 171 170 163 161 166 164 162 157 153 157 156 143 132 118 110 113 106 109 103 97 94 98 94 97 95 89
140 153 170 171 167 165 166 164 162 153 158 161 151 142 129 122 122 110 108 102 101 97 96 97 90 82 75
124 135 152 168 169 168 166 165 164 160 154 163 157 145 137 133 117 113 109 103 100 97 92 88 88 88 86
114 124 136 153 166 170 170 167 162 163 163 156 163 156 145 137 132 118 112 112 107 102 95 97 97 92 93
102 110 122 134 151 167 171 170 165 162 164 166 159 164 157 148 127 122 120 108 102 101 104 102 102 97 99
Wind_Direction
239 237 240 242 243 244 245 248 250 248 247 249 248 250 254 257 254 254 256 259 263 264 266 269 274 279 281
237 237 238 238 240 242 245 246 246 246 245 244 244 248 252 253 252 254 257 261 263 263 263 268 273 277 277
235 235 236 236 238 240 243 244 243 245 244 243 244 246 248 251 252 251 257 260 264 263 264 268 272 273 276
238 236 234 235 237 239 239 241 242 242 244 243 244 245 246 248 250 252 256 261 262 261 263 265 270 272 275
239 237 235 233 234 235 238 240 240 239 241 242 243 244 245 247 248 251 255 258 258 261 263 265 268 270 273
237 237 237 235 234 234 234 236 236 240 239 238 241 244 245 247 249 250 252 253 256 260 260 262 267 268 274
235 235 236 237 234 232 233 234 235 236 240 238 239 240 243 245 247 247 247 249 254 253 259 257 266 265 269
232 233 233 236 233 234 232 233 234 234 238 240 241 244 243 243 245 247 250 251 250 253 256 256 261 265 266
228 230 231 232 235 234 233 232 232 233 236 237 239 241 244 243 244 246 247 248 249 255 257 256 263 263 267
227 226 229 230 232 234 235 232 232 231 232 236 237 238 241 244 246 247 245 249 251 249 251 253 264 265 268
226 225 225 228 230 232 233 233 231 230 232 232 235 238 237 243 247 245 247 250 251 255 258 256 257 267 267
228 226 224 224 227 230 232 234 232 231 231 232 231 233 237 241 239 243 247 244 253 254 249 251 258 264 268
229 227 225 222 223 227 228 230 232 231 230 233 232 233 233 236 234 242 244 247 252 250 254 253 260 264 267
230 228 226 223 221 224 227 228 231 230 231 232 232 232 233 235 239 240 244 248 249 251 252 256 258 260 258
230 229 228 226 224 222 225 226 227 230 230 231 232 231 229 232 235 236 241 244 247 246 246 249 254 256 260
229 228 227 226 224 223 222 225 225 226 229 230 231 230 228 230 234 239 234 240 243 243 242 250 253 258 262
230 229 229 228 226 224 223 222 223 224 225 228 231 231 229 226 230 232 235 237 237 238 243 247 253 259 261
Height
10513 10524 10529 10541 10551 10559 10569 10579 10589 10600 10614 10621 10625 10633 10641 10647 10654 10658 10663 10668 10671 10674 10674 10677 10679 10679 10682
10480 10492 10505 10514 10526 10532 10540 10551 10564 10574 10589 10600 10604 10611 10620 10626 10634 10641 10646 10651 10655 10658 10660 10665 10664 10666 10668
10456 10464 10476 10490 10498 10507 10517 10525 10535 10548 10561 10575 10583 10589 10598 10605 10613 10621 10628 10633 10639 10642 10645 10650 10650 10653 10654
10426 10431 10448 10460 10468 10483 10496 10498 10510 10522 10532 10548 10559 10567 10574 10582 10591 10600 10608 10614 10619 10625 10629 10634 10635 10638 10640
10384 10400 10417 10433 10442 10452 10468 10472 10482 10493 10507 10519 10533 10543 10551 10559 10569 10579 10588 10595 10600 10604 10611 10617 10620 10623 10625
10338 10367 10382 10400 10408 10424 10436 10443 10453 10470 10482 10496 10502 10514 10526 10535 10547 10554 10563 10570 10576 10585 10592 10598 10603 10606 10608
10288 10327 10348 10359 10376 10392 10406 10413 10426 10444 10448 10466 10474 10487 10503 10513 10521 10532 10539 10546 10556 10564 10573 10578 10586 10588 10591
10248 10285 10311 10314 10335 10355 10374 10385 10399 10423 10427 10439 10451 10462 10475 10491 10500 10507 10517 10524 10535 10545 10553 10560 10565 10569 10573
10199 10233 10261 10280 10294 10314 10344 10357 10378 10400 10402 10415 10429 10442 10448 10462 10474 10483 10493 10504 10513 10523 10531 10539 10544 10549 10553
10151 10181 10214 10240 10257 10285 10302 10334 10355 10371 10383 10392 10411 10420 10425 10440 10451 10459 10467 10480 10490 10498 10508 10514 10520 10526 10531
10103 10136 10165 10196 10222 10248 10273 10296 10320 10346 10362 10365 10385 10395 10405 10419 10427 10438 10446 10455 10466 10475 10483 10490 10497 10501 10507
10061 10093 10124 10156 10189 10211 10237 10257 10284 10320 10330 10330 10356 10371 10388 10397 10400 10416 10427 10433 10443 10455 10462 10469 10474 10479 10488
10025 10057 10083 10118 10144 10160 10188 10218 10247 10280 10297 10298 10328 10353 10361 10375 10376 10396 10405 10416 10424 10432 10441 10447 10452 10457 10466
9993 10021 10042 10068 10093 10124 10147 10180 10207 10245 10268 10276 10300 10325 10343 10351 10358 10377 10386 10398 10404 10412 10418 10423 10427 10436 10445
9961 9985 10007 10031 10061 10086 10112 10138 10170 10210 10234 10250 10275 10296 10318 10324 10340 10355 10367 10377 10386 10394 10398 10404 10411 10416 10425
9926 9943 9964 9987 10021 10045 10072 10096 10134 10173 10201 10221 10239 10261 10284 10299 10314 10333 10344 10357 10369 10374 10376 10386 10393 10400 10408
9904 9919 9935 9957 9978 10008 10032 10059 10096 10134 10169 10186 10200 10224 10255 10278 10297 10312 10327 10339 10344 10353 10358 10363 10374 10383 10388